NOAA 16 DEB, 41151

Orbit data source: Space-Track

NOAA 16 DEB, 41151 is space debris in SSO originally from a launch on Thu, 21 Sep 2000 UTC launched from the Air Force Western Test Range (AFWTR). Debris objects in space refer to the collection of defunct objects orbiting the Earth. Examples of debris include non-operational satellites, rocket bodies, and fragments generated from explosions, collisions, or faulty payload assembly.

Loading next visibility...
Identifier
41151, 2000-055CJ
Orbit
SSO
Country
Flag of USUS
Related business
Manufacturer
Unknown
Mission
Spacecraft
Bus & Motor
Unknown
Mass
Unknown
Launch date (UTC)
2000-09-21 (26 years ago)
Launch vehicle
Unknown
Launch site
Air Force Western Test Range (AFWTR)
Object type
Payload
Rocket body
Debris
Shape & HBR
Unknown shape, 0.1 m
Radar Cross Section
Small (<0.1 m²)

Expand to show TLE details & history
Last TLE update: 3 days ago

TLE from 3 days ago
0 NOAA 16 DEB
1 41151U 00055CJ  26170.29076977  .00003147  00000-0  15934-2 0  9994
2 41151  98.7917 173.5891 0056205 341.6572  18.2575 14.15979778539671
Epoch: 2026-06-19T06:58Z
TLE epoch observation values (Epoch: 2026-06-19T06:58:42.508Z)
Latitude
0.00006°
Longitude
161.39011°
Altitude
803.381 km
Speed
7.472 km/s
True Right ascension
11h 34m 21s
True Declination
0° 00' 00"
Sunlit
Object was in daylight at epoch
Visualization orbit readout
Latitude
Unknown
Longitude
Unknown
Altitude
Unknown
Speed
Unknown
Apparent Right ascension
Unknown
Apparent Declination
Unknown
Sunlit
N/A
Visualization observer readout
Local Sidereal Time
21:55:08
Azimuth
Unknown
Elevation
Unknown
Doppler factor
Unknown
Orbital elements
Apogee altitude
876.697 km
Perigee altitude
795.601 km
Semi-major axis
7,214.286 km
Eccentricity
0.00562
Inclination
98.7917°
RAAN
173.5891°
Arg. of periapsis
341.6572°
True anomaly
18.46063°
Mean anomaly
18.2575°
Eccentric anomaly
18.35893°
Mean motion
3.54204 °/min
Orbital period
101.64 mins
BSTAR
0.0015934
Loading maneuver chart data...
Computing Atmospheric mass density...
Loading historical data...
Loading historical data...
Loading historical data...
Loading historical data...
Loading historical data...
Loading historical data...
Loading historical data...

Documentation

Showing up to 5 results
|